Location: Margaretting
(51.6833°N, 0.4167°E)
Time: 09:39:20
(UTC+00:00)

Daily predictions for brighter satellites

Satellite Brightness Start Highest point End
(mag) Time Altitude Azimuth Time Altitude Azimuth Time Altitude Azimuth
Cosmos 1603 3.8 20:51:32 10° NNW 20:57:19 83° ENE 21:03:02 10° SSE
Cosmos 1842 Rocket 3.7 20:54:09 10° S 20:58:31 63° E 21:02:55 10° NNE
USA 215 3.5 20:52:38 10° ESE 20:59:09 77° NNE 21:05:42 10° WNW
Cosmos 773 Rocket 4.0 20:55:39 10° SSW 21:00:46 77° ESE 21:05:58 10° NNE
Cosmos 1570 Rocket 4.1 21:00:37 10° SSW 21:05:57 89° WNW 21:11:21 10° NNE
Meteor 2-10 Rocket 4.0 21:01:37 10° NNW 21:07:27 75° W 21:13:10 10° S
USA 245 2.9 21:03:58 10° SSE 21:07:41 76° ENE 21:10:44 10° N
Cosmos 1844 Rocket 2.7 21:02:30 10° SSW 21:08:01 66° ESE 21:13:33 10° NE
SL-14 R/B 3.2 21:07:41 10° S 21:11:20 59° E 21:15:01 10° NNE
Cosmos 1238 Rocket 3.9 21:08:02 10° SSW 21:12:52 60° WNW 21:17:32 10° N
CZ-4C R/B 3.6 21:06:52 10° NW 21:13:31 49° WSW 21:21:40 10° SSE
Cosmos 1833 Rocket 3.7 21:11:35 10° NNW 21:16:54 39° NE 21:22:10 10° ESE
Cosmos 1151 Rocket 3.6 21:15:04 10° SSE 21:19:08 41° E 21:23:13 10° NNE
Cosmos 2082 Rocket 4.5 21:17:46 10° NNW 21:21:26 17° NNE 21:25:04 10° ENE
SL-08 R/B 4.3 21:20:45 10° N 21:25:12 49° WNW 21:29:36 10° SW
CZ-2C R/B 2.6 21:23:48 12° SE 21:26:10 39° ENE 21:28:46 10° N
Cosmos 1953 3.6 21:23:43 10° NNE 21:26:39 23° ENE 21:29:35 10° SE
SL-24 R/B - RUBIN 2 3.5 21:23:54 10° SW 21:28:24 75° SE 21:32:46 10° NE
Cosmos 1844 3.8 21:23:22 10° SSW 21:29:09 84° ESE 21:34:59 10° NNE
CZ-4B R/B 3.6 21:25:03 10° SSE 21:30:07 89° WSW 21:35:22 10° NNW
Okean O Rocket 3.1 21:26:47 10° SSW 21:30:44 33° W 21:34:43 10° NNW
NOSS 2-2 (E) 4.1 21:30:26 10° WSW 21:33:30 41° NW 21:36:23 10° NE
In-Cosmos 22 4.3 21:30:23 10° S 21:36:09 86° E 21:41:56 10° NNE
NOSS 3-2 (C) 3.8 21:33:13 10° S 21:37:42 33° ESE 21:42:55 10° NE
Cosmos 1461 3.3 21:39:01 10° NW 21:42:19 38° WSW 21:45:06 13° S
USA 186 3.8 21:42:50 10° SW 21:44:06 13° W 21:45:20 10° WNW
Cosmos 1745 Rocket 4.4 21:39:23 10° N 21:45:31 54° ENE 21:51:04 13° SSE
CZ-4B R/B 3.6 21:42:53 10° S 21:46:37 47° W 21:50:28 10° NNW
Sich 1 4.2 21:48:48 10° NNW 21:52:47 39° W 21:56:45 10° SSW
Cosmos 1500 Rocket 3.7 21:48:29 10° NNW 21:52:50 74° W 21:56:48 12° S
Helios 1A 4.1 21:51:48 10° NE 21:55:07 25° E 21:57:27 15° SE
Cosmos 2344 4.3 21:49:29 10° S 21:56:07 30° ESE 22:02:11 10° ENE
GP-B 3.0 21:53:00 10° N 21:57:24 82° E 22:01:23 12° S
Iridium 4 Rocket 3.6 21:55:05 12° S 22:00:06 69° E 22:05:07 10° N
Cosmos 1607 4.2 21:53:47 10° NW 22:00:06 63° SW 22:05:32 15° SSE
Helios 1B rocket 3.7 21:57:42 11° ESE 22:00:17 23° ENE 22:03:05 10° N
ARIANE 5 R/B 4.3 21:59:23 10° ESE 22:02:58 24° ENE 22:06:33 10° N
Cosmos 2285 Rocket 4.4 22:01:12 10° NNW 22:07:26 60° WSW 22:13:01 13° S
Cosmos 1420 Rocket 4.5 22:03:44 10° NNW 22:08:52 53° ENE 22:13:10 14° SE
NOSS 2-3 (D) 3.6 22:07:11 10° SSW 22:10:39 40° SE 22:14:17 10° NE
ALOS 2 4.1 22:11:55 11° ESE 22:15:26 26° ENE 22:19:06 10° N
Cosmos 1538 Rocket 4.2 22:11:35 12° S 22:16:14 56° ESE 22:21:21 10° NNE
Cosmos 2315 Rocket 4.4 22:13:38 15° SSE 22:18:30 49° E 22:24:27 10° NNE
CENTAUR R/B 4.0 22:13:33 10° W 22:19:25 45° NNW 22:26:49 10° NE
Cosmos 1943 Rocket 3.5 22:16:33 15° SE 22:19:30 23° ESE 22:23:46 10° NE
Iridium 45 4.0 22:18:34 20° S 22:20:31 81° E 22:23:37 10° N
Cosmos 1328 Rocket 3.7 22:24:40 19° SSE 22:27:40 56° E 22:31:56 10° NNE
Ariane Rocket 4.5 22:24:50 10° SSW 22:29:15 29° W 22:33:40 10° NNW
Lacrosse 5 rocket 2.2 22:30:44 21° SE 22:31:02 22° SE 22:33:48 10° E
Cosmos 1666 Rocket 3.5 22:30:11 10° NNW 22:34:33 86° W 22:37:29 20° S
CZ-2C R/B 4.4 22:32:35 10° ESE 22:36:35 23° ENE 22:40:37 10° N
NOSS 2-3 (E) 3.0 22:34:33 10° SW 22:38:11 74° SE 22:42:03 10° NE
Cosmos 1703 3.8 22:37:13 12° SW 22:39:56 41° WNW 22:42:58 10° N
USA 215 3.6 22:37:29 17° SSE 22:42:25 51° SW 22:48:46 10° WNW
NOSS 3-2 (A) 4.2 22:41:38 10° WSW 22:46:48 52° NNW 22:53:08 10° NE
GEOS 3 Rocket 3.7 22:45:16 17° SE 22:49:30 82° SW 22:54:56 10° NW
Timation 1 Rocket 4.3 22:44:27 10° NW 22:50:28 79° WSW 22:54:46 20° SSE
S3M 4.0 22:48:41 14° SSW 22:53:57 81° WNW 23:00:08 10° N
Cosmos 1515 Rocket 4.0 22:55:38 23° SSE 22:58:02 48° E 23:02:13 10° NNE
ARGOS Delta rocket 4.1 22:53:16 10° NNE 22:58:40 72° E 23:02:18 20° S
CSL-04 DEB 4.1 22:57:32 25° SSE 22:59:32 76° ENE 23:03:14 10° NNW
Cosmos 1833 Rocket 3.2 22:55:32 10° NW 23:00:57 47° WSW 23:04:36 20° S
USA 59 Rocket 1.0 23:01:29 19° ESE 23:01:29 19° ESE 23:03:36 10° ENE
Cosmos 1953 3.4 22:58:25 10° NNW 23:01:35 30° W 23:03:47 16° SW
Spot 4 3.9 22:59:30 22° SSE 23:02:40 79° ENE 23:07:32 10° NNW
Cosmos 1709 Rocket 4.4 22:58:23 10° NNW 23:04:38 61° W 23:09:28 18° SSW
Meteor 1-16 Rocket 4.3 22:59:21 10° NNW 23:04:50 76° W 23:08:42 21° S
Cosmos 2082 Rocket 2.8 23:01:19 10° NNW 23:06:52 52° NE 23:11:52 12° SE
Okean 3 4.0 23:09:18 24° SSE 23:11:10 40° E 23:14:56 10° NNE
Meteor 1-23 Rocket 4.2 23:07:56 18° SSW 23:12:10 85° WNW 23:17:47 10° NNE
Cosmos 1633 Rocket 3.8 23:08:08 10° NNW 23:12:18 45° W 23:15:02 20° SSW
Cosmos 2278 Rocket 2.7 23:09:54 22° SSE 23:13:09 42° ESE 23:18:27 10° NE
Cosmos 1400 Rocket 2.5 23:20:02 10° NNW 23:23:46 83° ENE 23:25:30 30° SSE
Cosmos 1624 Rocket 4.0 23:18:34 10° NNW 23:23:53 78° WSW 23:27:15 23° SSE
COSMOS 2406 4.4 23:19:40 10° NNW 23:25:02 39° NE 23:30:20 10° ESE
Cosmos 1680 Rocket 3.5 23:22:43 22° S 23:26:06 70° ESE 23:31:18 10° NNE
CZ-2C R/B 3.7 23:21:07 10° NNE 23:26:29 45° E 23:29:38 22° SSE
Cosmos 494 Rocket 4.1 23:24:38 23° S 23:27:52 62° ESE 23:33:03 10° NNE
NOSS 3-2 (C) 3.8 23:22:53 10° WSW 23:28:05 61° NW 23:34:27 10° NE
Helios 1A 4.1 23:26:14 10° N 23:29:52 36° WNW 23:33:09 12° SW
Meteor 1-12 Rocket 4.4 23:24:21 10° NNW 23:30:00 68° W 23:33:43 22° S
Cosmos 2056 Rocket 3.5 23:25:32 10° NNW 23:30:38 67° WSW 23:33:39 24° S
Helios 1B rocket 3.2 23:31:35 22° SW 23:33:04 31° W 23:36:13 10° NNW
NOSS 2-3 (C) 3.6 23:29:54 10° WSW 23:33:15 58° NW 23:37:00 10° NE
Cosmos 1812 2.2 23:34:18 10° N 23:35:32 37° NNE 23:35:32 37° NNE
ARIANE 5 R/B 3.1 23:36:34 24° SSW 23:39:00 50° W 23:43:21 10° NNW
ACS3 Solar Sail 2.8 23:34:29 10° NNE 23:39:32 31° E 23:43:11 17° SE
USA 238 DEB 3.6 23:36:16 18° SSW 23:40:53 62° SE 23:47:35 10° NE
Lacrosse 4 Rocket 4.3 23:38:29 10° N 23:40:56 15° NNE 23:43:22 10° ENE
USA 238 3.6 23:36:31 18° SSW 23:41:06 62° SE 23:47:47 10° NE
Okean 2 3.9 23:42:04 20° SW 23:44:23 46° WNW 23:48:08 10° N
BREEZE-M DEB (TANK) 3.5 23:34:35 10° W 23:48:53 77° S 23:53:06 10° E
ALOS 2 3.3 23:49:18 24° SSW 23:51:35 44° W 23:55:49 10° NNW
Cosmos 1933 Rocket 3.8 23:47:24 10° NNW 23:51:39 58° W 23:53:53 26° SSW
Cosmos 1441 Rocket 2.6 23:54:17 36° S 23:55:28 87° ESE 23:58:44 10° NNE
